This demonstration page uses our WeatherBlox Daily Observations layout. Learn more.

Left ArrowRight Arrow

Hourly Observations for January 19, 2022

Temp ( °F °C ) Dew Point ( °F °C ) Humidity (%) Winds ( mph kmh ) Pressure ( in mb ) Visibility ( mi km ) Precip ( " mm )
12:53 am 00:53 Cloudy 26 -3.3 15 -9.4 63 63 N 22 35 30.13 1020 10 16 0.00 0.00
1:53 am 01:53 Cloudy 25 -3.9 12 -11.1 58 58 N 20 31 30.15 1021 10 16 0.00 0.00
2:53 am 02:53 Cloudy 23 -5 9 -12.8 55 55 N 20 31 30.18 1022 10 16 0.00 0.00
3:53 am 03:53 Mostly Cloudy 21 -6.1 8 -13.3 57 57 N 24 39 30.23 1024 10 16 0.00 0.00
4:53 am 04:53 Cloudy 19 -7.2 6 -14.4 57 57 N 23 37 30.27 1025 10 16 0.00 0.00
5:53 am 05:53 Windy with Snow Likely 17 -8.3 5 -15 59 59 N 26 43 30.30 1026 9 14 0.00 0.00
6:53 am 06:53 Cloudy 17 -8.3 4 -15.6 56 56 N 22 35 30.34 1027 10 16 0.00 0.00
7:53 am 07:53 Cloudy 15 -9.4 1 -17.2 53 53 N 25 41 30.39 1029 10 16 0.00 0.00
8:53 am 08:53 Cloudy 14 -10 1 -17.2 56 56 N 25 41 30.44 1031 10 16 0.00 0.00
9:53 am 09:53 Mostly Cloudy 13 -10.6 0 -17.8 56 56 N 21 33 30.49 1033 10 16 0.00 0.00
10:53 am 10:53 Mostly Sunny 13 -10.6 -2 -18.9 51 51 N 22 35 30.53 1034 10 16 0.00 0.00
11:53 am 11:53 Sunny 13 -10.6 -3 -19.4 49 49 N 20 31 30.55 1035 10 16 0.00 0.00
12:53 pm 12:53 Sunny 13 -10.6 -3 -19.4 49 49 N 17 28 30.55 1035 10 16 0.00 0.00
1:53 pm 13:53 Sunny 14 -10 -4 -20 44 44 N 17 28 30.56 1035 10 16 0.00 0.00
2:53 pm 14:53 Partly Cloudy 15 -9.4 -5 -20.6 40 40 N 20 31 30.58 1035 10 16 0.00 0.00
3:53 pm 15:53 Mostly Cloudy 15 -9.4 -6 -21.1 38 38 N 21 33 30.59 1036 10 16 0.00 0.00
4:53 pm 16:53 Partly Cloudy 14 -10 -6 -21.1 40 40 N 21 33 30.61 1037 10 16 0.00 0.00
5:53 pm 17:53 Partly Cloudy 11 -11.7 -6 -21.1 46 46 N 14 22 30.64 1038 10 16 0.00 0.00
6:53 pm 18:53 Clear 10 -12.2 -5 -20.6 50 50 N 13 20 30.67 1039 10 16 0.00 0.00
7:53 pm 19:53 Clear 9 -12.8 -5 -20.6 52 52 N 8 13 30.71 1040 10 16 0.00 0.00
8:53 pm 20:53 Clear 7 -13.9 -5 -20.6 57 57 N 6 9 30.73 1041 10 16 0.00 0.00
9:53 pm 21:53 Clear 6 -14.4 -6 -21.1 57 57 N 9 15 30.74 1041 10 16 0.00 0.00
10:53 pm 22:53 Clear 3 -16.1 -6 -21.1 66 66 N 6 9 30.75 1041 10 16 0.00 0.00
11:53 pm 23:53 Clear 2 -16.7 -7 -21.7 65 65 Calm 30.76 1042 10 16 0.00 0.00

Powered by AerisWeather